Regional Weather Roundup
Issued by NWS

Home | Current Version | Previous Version | Graphics & Text | Print | Product List | Glossary On
Versions: 1 2 3 4 5 6 7 8 9 10 11 12 13 14 15 16 17 18 19 20 21 22 23 24 25 26 27 28 29 30 31 32 33 34 35 36 37 38 39 40 41 42 43 44 45 46 47 48 49 50
375
ASUS43 KLOT 221012
RWRIL

ILLINOIS REGIONAL WEATHER ROUNDUP
NATIONAL WEATHER SERVICE CHICAGO/ROMEOVILLE IL
500 AM CDT FRI MAY 22 2015

NOTE: "FAIR" INDICATES FEW OR NO CLOUDS BELOW 12,000 FEET WITH NO
SIGNIFICANT WEATHER AND/OR OBSTRUCTIONS TO VISIBILITY.

* THESE STATIONS ARE NOT UNDER NWS QUALITY CONTROL. THEY ALSO MAY NOT
  REPORT WEATHER SUCH AS PRECIPITATION OR FOG.

ILZ001-002-007-009-015-016-024-221100-
NORTHWEST ILLINOIS

CITY           SKY/WX    TMP DP  RH WIND       PRES   REMARKS
MOLINE         FAIR      46  39  76 W6        30.13R
STERLING*      CLEAR     48  43  81 W3        30.12R
SAVANNA*       CLEAR     47  43  88 CALM      30.12R
$$

ILZ003-004-008-010-011-017-018-221100-
NORTH CENTRAL ILLINOIS

CITY           SKY/WX    TMP DP  RH WIND       PRES   REMARKS
ROCKFORD       CLEAR     49  37  63 E3        30.13R
FREEPORT*      CLEAR     44  40  86 CALM      30.14R
ROCHELLE*      CLEAR     48  43  82 N5        30.12R
DE KALB*       CLEAR     45  41  85 NE8       30.11R
PERU*          CLEAR     50  45  83 W7        30.11R
$$

ILZ005-006-012>014-019>023-221100-
NORTHEAST ILLINOIS

CITY           SKY/WX    TMP DP  RH WIND       PRES   REMARKS
CHICAGO-OHARE  CLEAR     47  39  74 N9        30.10R
CHICAGO-MIDWAY CLEAR     53  44  71 N5        30.09R
AURORA         CLEAR     44  39  82 NW5       30.10R
LANSING*       CLEAR     44  39  85 CALM      30.09R
JOLIET*        CLEAR     46  44  93 CALM      30.10R
WAUKEGAN       CLEAR     42  38  85 CALM      30.11R
DUPAGE AIRPORT CLEAR     44  41  89 N7        30.10R
KANKAKEE*      CLEAR     51  46  82 W6        30.10R
WHEELING       CLEAR     46  38  73 N5        30.13R
MORRIS*        CLEAR     48  44  86 NW5       30.06R
ROMEOVILLE*    CLEAR     48  43  81 N5        30.09R
NORTHERLY ISL    N/A     48  42  80 N12         N/A
$$

LMZ740>746-221100-
SOUTHERN LAKE MICHIGAN

STATION/POSITION SKY/WX   TEMP    WIND        PRES    VSBY  WAVE
                          AIR SEA DIR/SP/G                  HT/PER
                          (F)     (DEG/KT/KT) (MB)    (MI)  (FT/S)
SOUTHERN BUOY              41 38   30/  8/  8 1020.0R
HARRISON CRIB              48     340/ 12/ 13   N/A
BURNHAM HARBOR             48     360/ 11/ 11   N/A
CALUMET HARBOR             52     350/  8/ 10   N/A
BURNS HARBOR               54     190/  6/  6 1019.0R
MICHIGAN CITY              54     170/  4/  5   N/A
MICHIGAN CITY 6N           50 51   30/  6/  8   N/A           1
ST. JOSEPH                 51 53   40/  4/  6   N/A           1/ 3
$$

ILZ025>027-034>036-040-047-049-050-058-095>099-221100-
WEST-CENTRAL ILLINOIS

CITY           SKY/WX    TMP DP  RH WIND       PRES   REMARKS
QUINCY         CLEAR     53  44  71 W9        30.17R
GALESBURG*     CLEAR     49  45  84 W7        30.14R
MACOMB*        CLEAR     51  46  82 W10       30.17R
JACKSONVILLE*  CLEAR     53  46  77 SW6       30.16R
PITTSFIELD*    CLEAR     56  46  67 W8        30.18R
$$

ILZ028>032-037-038-041>044-048-051>054-059>061-221100-
CENTRAL ILLINOIS

CITY           SKY/WX    TMP DP  RH WIND       PRES   REMARKS
PONTIAC        CLEAR     51  47  86 W3        30.12R
BLOOMINGTON    CLEAR     52  47  83 W10       30.13R
DECATUR        CLEAR     53  45  74 SW10      30.15R
PEORIA         CLEAR     54  45  71 W5        30.13R
LACON*         CLEAR     53  45  76 SW3       30.12R
LINCOLN*       CLEAR     55  46  70 W3        30.13R
SPRINGFIELD    CLEAR     53  45  74 W10       30.15R
TAYLORVILLE    CLEAR     50  45  81 SW8       30.16R
$$

ILZ033-039-045-046-055>057-062-063-221100-
EAST-CENTRAL ILLINOIS

CITY           SKY/WX    TMP DP  RH WIND       PRES   REMARKS
CHAMPAIGN      CLEAR     49  44  83 SW9       30.13R
DANVILLE*      CLEAR     48  44  85 SW7       30.10R
RANTOUL*       CLEAR     54  46  75 W7        30.12R
MATTOON        CLEAR     51  42  71 SW9       30.14S
PARIS*         CLEAR     49  43  78 SW10      30.15R
$$

ILZ079-100>102-221100-
SOUTHWEST ILLINOIS

CITY           SKY/WX    TMP DP  RH WIND       PRES   REMARKS
ALTON          CLEAR     49  49  99 CALM      30.21R
BELLEVILLE     CLEAR     44  44  99 SW6       30.20R
CAHOKIA*       CLEAR     47  43  86 CALM      30.21R
SPARTA*        CLEAR     47  43  85 SW5       30.24R
$$

ILZ064>066-069>071-074>076-080>082-084>086-088>090-092>094-221100-
SOUTH-CENTRAL ILLINOIS

CITY           SKY/WX    TMP DP  RH WIND       PRES   REMARKS
CARBONDALE     CLEAR     44  41  89 MISG      30.24R
CAIRO*         CLEAR     46  46  97 CALM      30.25R
EFFINGHAM*     CLEAR     48  42  77 S7        30.20S
MARION         CLEAR     50  46  87 SW3       30.25R
MT. VERNON     CLEAR     43  37  81 SW5       30.23R
CENTRALIA*     CLEAR     47  42  85 SW6       30.22R
SALEM*         CLEAR     50  44  79 SW7       30.21R
METROPOLIS*    CLEAR     43  43 100 CALM      30.24S FOG
$$

ILZ067-068-072-073-078-083-087-091-221100-
SOUTHEAST ILLINOIS

CITY           SKY/WX    TMP DP  RH WIND       PRES   REMARKS
LAWRENCEVILLE  CLEAR     47  41  80 SW6       30.20R
FLORA*         CLEAR     46  42  88 SW6       30.21R
FAIRFIELD*     CLEAR     44  43  96 CALM      30.22R
HARRISBURG*    CLEAR     44  44 100 CALM      30.26R
ROBINSON*      CLEAR     49  43  78 SW8       30.19S
CARMI*         CLEAR     46  40  82 SW6       30.23R
$$

ABBREVIATIONS USED IN REMARKS
   TC - TEMPERATURE IN CELSIUS
  WCI - WIND CHILL INDEX
   HX - HEAT INDEX
  VSB - VISIBILITY
$$




USA.gov is the U.S. government's official web portal to all federal, state and local government web resources and services.